Regional Weather Roundup
Issued by NWS Charleston, SC

Current Version | Previous Version | Text Only | Print | Product List | Glossary On
Versions: 1 2 3 4 5 6 7 8 9 10 11 12 13 14 15 16 17 18 19 20 21 22 23 24 25 26 27 28 29 30 31 32 33 34 35 36 37 38 39 40 41 42 43 44 45 46 47 48 49 50
000 ASUS42 KCHS 231326 RWRCHS Regional Weather Roundup National Weather Service Charleston SC 900 AM EDT FRI APR 23 2021 NOTE: "fair" indicates few or no clouds below 12,000 feet with no significant weather and/or obstructions to visibility. Not all stations are quality controlled. Use data with caution, especially dewpoint observations. SCZ027-030-031-034>040-042>050-231400- ...Southeast South Carolina... CITY SKY/WX TMP DP RH WIND PRES REMARKS N Charleston MOSUNNY 57 42 57 CALM 30.23S Waterfront Prk N/A 58 46 64 VRB3 30.10R Mount Pleasant FAIR 59 48 67 CALM 30.23F Johns Island FAIR 59 45 58 CALM 30.24S Pinopolis N/A 55 45 67 VRB3 30.15S Moncks Corner FAIR 55 41 58 CALM 30.24S Summerville FAIR 54 45 71 CALM 30.23S Beaufort MCAS MOSUNNY 59 46 62 SE5 30.23R Beaufort Arpt FAIR 59 46 63 CALM 30.23S Hilton Head Is SUNNY 50 48 93 NE5 30.24R Walterboro SUNNY 54 41 62 CALM 30.24S Allendale FAIR 57 43 58 CALM 30.24R ...Southern Midlands and Pee Dee... CITY SKY/WX TMP DP RH WIND PRES REMARKS Georgetown FAIR 55 43 62 NW3 30.25S Kingstree FAIR 52 37 58 CALM 30.24F Orangeburg SUNNY 51 39 63 CALM 30.23S Barnwell FAIR 54 39 58 W6 30.24R Aiken FAIR 53 34 48 CALM 30.24R Manning FAIR 54 37 54 CALM 30.24S Columbia MOSUNNY 50 36 58 CALM 30.23R Sumter SUNNY 53 33 47 NE3 30.22F Florence SUNNY 52 33 48 E6 30.25S Myrtle Beach SUNNY 51 42 71 N8 30.25S N Myrtle Beach SUNNY 55 39 54 NE7 30.24S $$ GAZ063-065-086>088-099>101-113>116-118-119-134>141-150-231400- ...Southeast Georgia... CITY SKY/WX TMP DP RH WIND PRES REMARKS Savannah Arpt MOSUNNY 56 45 66 CALM 30.23R Hunter AAF SUNNY 59 44 58 CALM 30.20R Fort Stewart SUNNY 54 43 68 CALM 30.21R Statesboro SUNNY 55 42 61 CALM 30.24R Sylvania SUNNY 53 42 66 CALM 30.24R Claxton FAIR 56 46 68 CALM 30.24R Millen FAIR 55 43 63 CALM 30.23S Metter FAIR 56 46 68 CALM 30.23S Reidsville NOT AVBL ...CSRA, Central and far Southeast Georgia... CITY SKY/WX TMP DP RH WIND PRES REMARKS Thomson MOSUNNY 51 41 69 E5 30.21F Augusta-Bush MOSUNNY 48 41 76 CALM 30.23R Augusta-Daniel NOT AVBL Swainsboro FAIR 55 36 47 CALM 30.23F Vidalia SUNNY 61 43 51 CALM 30.23S Eastman FAIR 56 44 65 CALM 30.22S Hazlehurst FAIR 59 42 54 CALM 30.21S Alma SUNNY 55 45 68 CALM 30.22R Waycross SUNNY 59 45 60 E5 30.22R Jesup FAIR 59 45 58 CALM 30.23S Baxley FAIR 54 43 66 CALM 30.22S Brunswick SUNNY 63 48 58 E5 30.23R Saint Simons SUNNY 64 37 36 E10 30.21R $$ SCZ027-028-034-036>038-045-046-048>050-GAZ119-141-231400- ...Lake and Supplemental Coastal Observations... STATION/POSITION TIME TEMP WIND PRES WAVE SWELL AIR SEA DIR/SP/G HT/PER HT/PER/DIR (UTC) (F) (DEG/KT/KT) (MB) (FT/S) (FT/S/D) Winyah Bay 1245 54 320/ 5 1024.0R Lake Murray 1320 54 40/ 1/ 2 N/A Chrlstn Harbor 1242 60 67 350/ 3/ 5 1024.0R ACE Basin NERRS 1245 55 320/ 1 1024.0R Fort Pulaski 1242 65 1023.9R Sapelo Island 1300 64 80/ 6 1023.0 $$ ANZ835-935-AMZ111-154-330-350-352-354-370-450-454-472-231400- ...C-MAN and Buoy Observations... STATION/POSITION TIME TEMP WIND PRES WAVE SWELL AIR SEA DIR/SP/G HT/PER HT/PER/DIR (UTC) (F) (DEG/KT/KT) (MB) (FT/S) (FT/S/D) Buoy 41004 NOT AVBL Buoy 41008 1250 63 66 80/ 10/ 14 1022.9R 2/ 9 2/ 90/ 9 Folly Beach CMAN 1300 58 30/ 3/ 4 1024.3R Capers Nearshore 1308 60 66 340/ 2/ 4 1023.9 Fripp Nearshore 1308 62 66 90/ 6/ 10 1023.2R STATION/POSITION TIME TEMP WIND PRES WAVE SWELL AIR SEA DIR/SP/G HT/PER HT/PER/DIR (UTC) (F) (DEG/KT/KT) (MB) (FT/S) (FT/S/D) 5E St. Marys GA 1230 65 67 N/A 3/ 4 Frying Pan Buoy 1300 67 350/ 10/ 14 1023.1 Buoy 41025 NOT AVBL Cape Lookout NC 1300 54 10/ 12/ 15 1024.3R Buoy 41002 NOT AVBL Buoy 41010 1310 67 60/ 14/ 17 1022.3 St Augustine FL 1300 66 67 50/ 11/ 12 1022.5R $$

USA.gov is the U.S. government's official web portal to all federal, state and local government web resources and services.